Observations for Trim Patrick St
| Time | AQI | Temp °C | Hum % | Pres Pa | CO μg/m³ | H₂S μg/m³ | NO μg/m³ | NO₂ μg/m³ | O₃ μg/m³ | SO₂ μg/m³ | PM1 μg/m³ | PM2.5 μg/m³ | PM10 μg/m³ |
|---|---|---|---|---|---|---|---|---|---|---|---|---|---|
| Friday 31 July 2026 | |||||||||||||
| 00:42 | 2 | 13.8 | 67 | 76,869 | 0.17 | 3.37 | 3.1 | 11.94 | 47.09 | 0 | 2.86 | 6.82 | 7.5 |
| 00:41 | 2 | 13.8 | 67 | 76,814 | 0.17 | 3.92 | 3.31 | 14.83 | 50.54 | 0 | 2 | 6.09 | 6.7 |
| 00:40 | 2 | 13.8 | 66 | 76,749 | 0.18 | 3.81 | 3.3 | 14.21 | 48.76 | 0 | 2.86 | 6.86 | 7.55 |
| 00:39 | 3 | 13.9 | 66 | 76,696 | 0.18 | 3.86 | 3.18 | 13.62 | 48.67 | 0 | 2.86 | 6.84 | 7.53 |
| 00:38 | 2 | 13.9 | 66 | 76,641 | 0.17 | 3.84 | 3.1 | 13.88 | 46.3 | 0 | 2 | 6.12 | 6.73 |
| 00:37 | 2 | 13.9 | 66 | 76,590 | 0.18 | 3.84 | 3.02 | 16.47 | 45.88 | 0 | 2 | 7.57 | 8.33 |
| 00:36 | 3 | 13.9 | 66 | 76,527 | 0.18 | 3.81 | 2.99 | 13.62 | 48.67 | 0 | 3.71 | 7.57 | 8.33 |
| 00:35 | 3 | 13.9 | 66 | 76,484 | 0.18 | 4.05 | 3.09 | 13.64 | 48.95 | 0 | 2.86 | 6.84 | 7.52 |
| 00:34 | 3 | 14 | 66 | 76,439 | 0.16 | 3.94 | 3.25 | 13.81 | 47.85 | 0 | 2.86 | 6.11 | 6.72 |
| 00:33 | 3 | 14 | 66 | 76,391 | 0.17 | 3.76 | 3.1 | 14.86 | 46.43 | 0 | 2.86 | 6.84 | 7.53 |
| 00:32 | 3 | 14 | 66 | 76,332 | 0.18 | 3.94 | 3.1 | 13.54 | 49.98 | 0 | 2.86 | 6.84 | 7.52 |
| 00:31 | 3 | 14.1 | 66 | 76,285 | 0.17 | 4.2 | 3.11 | 14.48 | 49.01 | 0 | 2 | 6.85 | 7.53 |
| 00:30 | 3 | 14.1 | 66 | 76,250 | 0.18 | 4.18 | 3.07 | 19.93 | 47.49 | 0 | 2 | 6.15 | 6.76 |
| 00:29 | 3 | 14.1 | 66 | 76,222 | 0.19 | 3.58 | 3.11 | 10.85 | 45.61 | 0 | 2 | 7.59 | 8.35 |
| 00:27 | 3 | 14.2 | 66 | 76,161 | 0.19 | 3.4 | 3.16 | 14.84 | 45.21 | 0 | 3.71 | 7.61 | 8.37 |
| 00:26 | 3 | 14.2 | 65 | 76,150 | 0.19 | 4.47 | 3.14 | 15.32 | 50.39 | 0 | 2 | 6.91 | 7.6 |
| 00:25 | 3 | 14.2 | 66 | 76,144 | 0.18 | 4.15 | 3.03 | 16.23 | 45.68 | 0 | 2.86 | 6.13 | 6.74 |
| 00:24 | 3 | 14.2 | 66 | 76,132 | 0.19 | 4.23 | 2.88 | 13.02 | 50.84 | 0 | 2 | 6.14 | 6.75 |
| 00:23 | 3 | 14.2 | 66 | 76,112 | 0.19 | 4.78 | 3.19 | 16.97 | 47.97 | 0 | 2.86 | 8.32 | 9.15 |
| 00:21 | 3 | 14.3 | 66 | 76,057 | 0.19 | 4.91 | 2.93 | 12.5 | 51.66 | 0 | 2.86 | 7.61 | 8.37 |